Location: Crocus Hill
(18.2167°N, 63.0667°W)
Time: 06:14:50
(UTC+00:00)

ATLAS 3B R/B - Pass Details

Date: 26 January 2020
Orbit: 1027 x 1168 km, 63.8° (Epoch: 09 February)

Event Time Altitude Azimuth Distance (km) Brightness Sun altitude
Rises 00:45:11 0° 223° (SW) 3,837 6.2 -38.2°
Reaches altitude 10° 00:48:02 10° 231° (SW) 2,864 5.5 -38.9°
Enters shadow 00:53:14 37° 278° (W) 1,569 3.8 -40.1°
